sat.trackr.live / text

‹ back to catalog

FENGYUN 4C

NORAD 67246 · 2025-312A

PAYLOAD ACTIVE UNKNOWN

§ Identity

Operator
Country
PRC
Launch date
2025-12-26
Launch site
XICLF
Launch vehicle
Mass (kg)
RCS (m²)

Purposes: comms

External: N2YO · Heavens-Above · Gunter

§ Orbital elements

Epoch: 2026-09-19T20:41:38.647968Z

Period
1,436.10 min
Inclination
0.0172°
Eccentricity
0.0000395
Mean motion
1.00271615 rev/d
Perigee alt
35,785.0 km
Apogee alt
35,788.3 km
Semi-major
42,164.8 km
B*
0.0000e+0
RAAN
358.8384°
Arg perigee
262.3339°
Mean anomaly
181.0133°
Rev number
281

§ Raw data

FENGYUN 4C1 67246U 25312A   26262.86225287 -.00000327  00000+0  00000+0 0  99972 67246   0.0172 358.8384 0000395 262.3339 181.0133  1.00271615  2812

JSON: /api/v1/satellites/67246 · /tle

For live sub-satellite position, see the globe view (requires WebGL).

§ Visibility from observer

Set your observer location to see the next 7 days of passes ≥ 10°. The values pass through the URL so the page stays shareable.

No JS? Fill the form by hand. The geolocation button needs JavaScript.

§ Radio — SatNOGS DB

ModeDescriptionDownlinkUplink
BPSK HRIT 1.681 GHz
BPSK LRIT 1.697 GHz

2 transmitters · refreshed weekly from db.satnogs.org